| time (UTC) | temp F | wind direction | speed knots | gust knots | rain 1hr in | rain 24hr in | rain mn in | humidity % | barometer mb |
| 20260903160021 | 63 | 293 | 1.7 | 7.8 | 0.00 | 0.02 | 0.02 | 96 | 1004.9 |
| 20260903155520 | 63 | 200 | 1.7 | 7.0 | 0.00 | 0.02 | 0.02 | 96 | 1004.9 |
| 20260903155021 | 63 | 306 | 1.7 | 5.2 | 0.00 | 0.02 | 0.02 | 96 | 1004.9 |
| 20260903154619 | 63 | 214 | 1.7 | 6.1 | 0.00 | 0.02 | 0.02 | 96 | 1004.9 |
| 20260903154021 | 64 | 217 | 0.9 | 7.0 | 0.00 | 0.02 | 0.02 | 96 | 1005.0 |
| 20260903153518 | 64 | 257 | 1.7 | 7.0 | 0.00 | 0.02 | 0.02 | 96 | 1005.0 |
| 20260903153017 | 64 | 304 | 1.7 | 7.0 | 0.00 | 0.02 | 0.02 | 97 | 1005.1 |
| 20260903152517 | 64 | 192 | 2.6 | 7.0 | 0.00 | 0.02 | 0.02 | 96 | 1005.0 |
| 20260903152020 | 64 | 278 | 0.9 | 5.2 | 0.00 | 0.02 | 0.02 | 96 | 1005.0 |
| 20260903151515 | 64 | 211 | 0.9 | 4.3 | 0.00 | 0.02 | 0.02 | 97 | 1005.0 |
| 20260903151015 | 64 | 186 | 0.9 | 4.3 | 0.00 | 0.02 | 0.02 | 97 | 1004.9 |
| 20260903150513 | 64 | 219 | 0.9 | 4.3 | 0.00 | 0.02 | 0.02 | 97 | 1005.1 |
| 20260903150016 | 64 | 292 | 0.9 | 5.2 | 0.00 | 0.02 | 0.02 | 97 | 1005.1 |
| 20260903145516 | 64 | 332 | 0.9 | 3.5 | 0.00 | 0.02 | 0.02 | 97 | 1005.2 |
| 20260903145014 | 64 | 248 | 0.0 | 1.7 | 0.00 | 0.02 | 0.02 | 97 | 1005.2 |
| 20260903144513 | 64 | 244 | 0.0 | 1.7 | 0.00 | 0.02 | 0.02 | 97 | 1005.1 |
| 20260903144014 | 64 | 244 | 0.0 | 0.9 | 0.00 | 0.02 | 0.02 | 97 | 1005.2 |
| 20260903143513 | 64 | 244 | 0.0 | 2.6 | 0.00 | 0.02 | 0.02 | 97 | 1005.2 |
| 20260903143012 | 64 | 244 | 0.9 | 2.6 | 0.00 | 0.02 | 0.02 | 97 | 1005.3 |
| 20260903142512 | 64 | 217 | 0.9 | 6.1 | 0.00 | 0.02 | 0.02 | 97 | 1005.3 |
| 20260903142016 | 64 | 296 | 1.7 | 7.8 | 0.00 | 0.02 | 0.02 | 97 | 1005.2 |
| 20260903141511 | 64 | 202 | 3.5 | 7.8 | 0.00 | 0.02 | 0.02 | 97 | 1005.2 |
| 20260903141011 | 64 | 202 | 1.7 | 6.1 | 0.00 | 0.02 | 0.02 | 97 | 1005.2 |
| 20260903140510 | 63 | 182 | 1.7 | 6.1 | 0.00 | 0.02 | 0.02 | 97 | 1005.2 |
| 20260903140014 | 63 | 185 | 0.0 | 2.6 | 0.00 | 0.02 | 0.02 | 97 | 1005.3 |
| 20260903135508 | 63 | 185 | 0.9 | 3.5 | 0.00 | 0.02 | 0.02 | 97 | 1005.5 |
| 20260903135007 | 63 | 219 | 0.9 | 3.5 | 0.00 | 0.02 | 0.02 | 97 | 1005.6 |
| 20260903134507 | 63 | 202 | 0.0 | 2.6 | 0.00 | 0.02 | 0.02 | 97 | 1005.7 |
| 20260903134007 | 63 | 203 | 0.9 | 2.6 | 0.00 | 0.02 | 0.02 | 97 | 1005.7 |
| 20260903133506 | 62 | 175 | 0.0 | 1.7 | 0.00 | 0.02 | 0.02 | 97 | 1005.6 |
| 20260903133005 | 62 | 175 | 0.0 | 0.9 | 0.00 | 0.02 | 0.02 | 97 | 1005.6 |
| 20260903132504 | 62 | 175 | 0.0 | 0.0 | 0.00 | 0.02 | 0.02 | 97 | 1005.9 |
| 20260903132003 | 62 | 175 | 0.0 | 0.9 | 0.00 | 0.02 | 0.02 | 97 | 1006.0 |
| 20260903131506 | 62 | 175 | 0.0 | 1.7 | 0.00 | 0.02 | 0.02 | 97 | 1006.0 |
| 20260903131002 | 62 | 175 | 0.0 | 1.7 | 0.00 | 0.02 | 0.02 | 96 | 1006.1 |
| 20260903130501 | 62 | 175 | 0.0 | 2.6 | 0.00 | 0.02 | 0.02 | 96 | 1006.1 |
| 20260903130003 | 62 | 175 | 0.9 | 2.6 | 0.00 | 0.02 | 0.02 | 96 | 1006.2 |
| 20260903125502 | 62 | 164 | 0.0 | 2.6 | 0.00 | 0.02 | 0.02 | 96 | 1006.2 |
| 20260903125002 | 62 | 164 | 0.0 | 1.7 | 0.00 | 0.02 | 0.02 | 96 | 1006.1 |
| 20260903124501 | 62 | 164 | 0.0 | 2.6 | 0.00 | 0.02 | 0.02 | 96 | 1006.0 |
| 20260903124001 | 62 | 164 | 0.9 | 2.6 | 0.00 | 0.02 | 0.02 | 96 | 1006.3 |
| 20260903123600 | 62 | 207 | 0.9 | 3.5 | 0.00 | 0.02 | 0.02 | 96 | 1006.4 |
| 20260903123100 | 62 | 201 | 1.7 | 3.5 | 0.00 | 0.02 | 0.02 | 96 | 1006.2 |
| 20260903122601 | 62 | 188 | 1.7 | 3.5 | 0.00 | 0.02 | 0.02 | 96 | 1006.0 |
| 20260903122058 | 62 | 173 | 0.0 | 2.6 | 0.00 | 0.02 | 0.02 | 97 | 1006.2 |
| 20260903121600 | 61 | 163 | 0.0 | 4.3 | 0.00 | 0.02 | 0.02 | 97 | 1006.6 |
| 20260903121056 | 61 | 186 | 1.7 | 4.3 | 0.00 | 0.02 | 0.02 | 96 | 1006.7 |
| 20260903120558 | 61 | 215 | 2.6 | 5.2 | 0.00 | 0.02 | 0.02 | 96 | 1006.7 |
| 20260903120056 | 61 | 182 | 0.9 | 4.3 | 0.00 | 0.02 | 0.02 | 96 | 1006.7 |
| 20260903115554 | 61 | 196 | 0.9 | 5.2 | 0.00 | 0.02 | 0.02 | 96 | 1006.8 |
| 20260903115054 | 61 | 198 | 2.6 | 5.2 | 0.00 | 0.02 | 0.02 | 96 | 1006.8 |
| 20260903114553 | 61 | 181 | 0.9 | 5.2 | 0.00 | 0.02 | 0.02 | 96 | 1006.9 |
| 20260903114052 | 61 | 161 | 1.7 | 5.2 | 0.00 | 0.02 | 0.02 | 96 | 1007.1 |
| 20260903113557 | 61 | 188 | 1.7 | 4.3 | 0.00 | 0.02 | 0.02 | 96 | 1007.0 |
| 20260903113052 | 61 | 176 | 1.7 | 5.2 | 0.00 | 0.02 | 0.02 | 96 | 1007.1 |
| 20260903112554 | 61 | 211 | 1.7 | 5.2 | 0.00 | 0.02 | 0.02 | 96 | 1007.1 |
| 20260903112050 | 61 | 165 | 2.6 | 6.1 | 0.00 | 0.02 | 0.02 | 96 | 1007.1 |
| 20260903111550 | 61 | 198 | 1.7 | 6.1 | 0.00 | 0.02 | 0.02 | 96 | 1007.2 |
| 20260903111050 | 61 | 167 | 2.6 | 6.1 | 0.00 | 0.02 | 0.02 | 96 | 1007.1 |
| 20260903110548 | 61 | 210 | 2.6 | 6.1 | 0.00 | 0.02 | 0.02 | 96 | 1007.2 |
| 20260903110048 | 61 | 188 | 1.7 | 3.5 | 0.00 | 0.02 | 0.02 | 96 | 1007.3 |
| 20260903105547 | 61 | 159 | 0.9 | 5.2 | 0.01 | 0.02 | 0.02 | 96 | 1007.4 |
| 20260903105047 | 61 | 197 | 1.7 | 5.2 | 0.01 | 0.02 | 0.02 | 96 | 1007.5 |
| 20260903104546 | 61 | 182 | 0.9 | 4.3 | 0.01 | 0.02 | 0.02 | 96 | 1007.5 |
| 20260903104045 | 61 | 161 | 1.7 | 5.2 | 0.01 | 0.02 | 0.02 | 96 | 1007.7 |
| 20260903103544 | 61 | 173 | 2.6 | 5.2 | 0.01 | 0.02 | 0.02 | 96 | 1007.7 |
| 20260903103045 | 60 | 183 | 2.6 | 6.1 | 0.01 | 0.02 | 0.02 | 96 | 1007.9 |
| 20260903102545 | 60 | 192 | 2.6 | 6.1 | 0.01 | 0.02 | 0.02 | 96 | 1007.9 |
| 20260903102042 | 60 | 158 | 2.6 | 6.1 | 0.01 | 0.02 | 0.02 | 96 | 1008.0 |
| 20260903101542 | 60 | 180 | 1.7 | 5.2 | 0.01 | 0.02 | 0.02 | 96 | 1008.0 |
| 20260903101041 | 60 | 209 | 2.6 | 6.1 | 0.01 | 0.02 | 0.02 | 96 | 1008.2 |
| 20260903100541 | 60 | 209 | 3.5 | 6.1 | 0.01 | 0.02 | 0.02 | 96 | 1008.2 |
| 20260903100040 | 60 | 153 | 1.7 | 8.7 | 0.01 | 0.02 | 0.02 | 96 | 1008.3 |
| 20260903095539 | 60 | 200 | 3.5 | 8.7 | 0.00 | 0.01 | 0.01 | 97 | 1008.4 |
| 20260903095040 | 60 | 218 | 1.7 | 7.0 | 0.00 | 0.01 | 0.01 | 97 | 1008.5 |
| 20260903094538 | 60 | 223 | 0.9 | 7.0 | 0.00 | 0.01 | 0.01 | 97 | 1008.4 |
| 20260903094038 | 60 | 196 | 2.6 | 6.1 | 0.00 | 0.01 | 0.01 | 97 | 1008.6 |
| 20260903093538 | 60 | 199 | 2.6 | 5.2 | 0.00 | 0.01 | 0.01 | 97 | 1008.7 |
| 20260903093035 | 59 | 257 | 1.7 | 5.2 | 0.00 | 0.01 | 0.01 | 97 | 1008.8 |
| 20260903092534 | 59 | 144 | 1.7 | 6.1 | 0.00 | 0.01 | 0.01 | 97 | 1008.9 |
| 20260903092032 | 59 | 186 | 1.7 | 6.1 | 0.00 | 0.01 | 0.01 | 97 | 1008.9 |
| 20260903091546 | 59 | 187 | 1.7 | 6.1 | 0.00 | 0.01 | 0.01 | 97 | 1009.1 |
| 20260903091031 | 60 | 192 | 2.6 | 7.8 | 0.00 | 0.01 | 0.01 | 97 | 1009.2 |
| 20260903090531 | 60 | 161 | 1.7 | 7.8 | 0.00 | 0.01 | 0.01 | 97 | 1009.2 |
| 20260903090030 | 60 | 204 | 0.9 | 6.1 | 0.00 | 0.01 | 0.01 | 97 | 1009.3 |
| 20260903085529 | 59 | 192 | 0.9 | 4.3 | 0.00 | 0.01 | 0.01 | 97 | 1009.3 |
| 20260903085028 | 59 | 175 | 0.9 | 4.3 | 0.00 | 0.01 | 0.01 | 97 | 1009.3 |
| 20260903084528 | 59 | 259 | 0.9 | 3.5 | 0.00 | 0.01 | 0.01 | 97 | 1009.5 |
| 20260903084027 | 59 | 185 | 0.0 | 4.3 | 0.00 | 0.01 | 0.01 | 97 | 1009.6 |
| 20260903083526 | 59 | 158 | 0.9 | 4.3 | 0.00 | 0.01 | 0.01 | 97 | 1009.6 |
| 20260903083027 | 59 | 171 | 1.7 | 5.2 | 0.00 | 0.01 | 0.01 | 97 | 1009.6 |
| 20260903082525 | 59 | 175 | 0.9 | 4.3 | 0.00 | 0.01 | 0.01 | 97 | 1009.7 |
| 20260903082023 | 59 | 205 | 0.9 | 4.3 | 0.00 | 0.01 | 0.01 | 97 | 1009.7 |
| 20260903081523 | 59 | 196 | 0.0 | 4.3 | 0.00 | 0.01 | 0.01 | 97 | 1009.8 |
| 20260903081022 | 59 | 203 | 0.9 | 3.5 | 0.00 | 0.01 | 0.01 | 97 | 1009.8 |
| 20260903080522 | 59 | 172 | 0.9 | 2.6 | 0.00 | 0.01 | 0.01 | 98 | 1009.8 |
| 20260903080021 | 59 | 186 | 0.0 | 2.6 | 0.00 | 0.01 | 0.01 | 98 | 1009.8 |
| 20260903075520 | 59 | 154 | 0.0 | 2.6 | 0.00 | 0.01 | 0.01 | 98 | 1009.9 |
| 20260903075022 | 59 | 245 | 0.0 | 2.6 | 0.00 | 0.01 | 0.01 | 98 | 1009.9 |
| 20260903074518 | 59 | 246 | 0.0 | 2.6 | 0.00 | 0.01 | 0.01 | 98 | 1010.0 |
| 20260903074017 | 59 | 232 | 0.0 | 2.6 | 0.00 | 0.01 | 0.01 | 98 | 1010.0 |
| 20260903073619 | 59 | 232 | 0.0 | 2.6 | 0.00 | 0.01 | 0.01 | 98 | 1010.0 |
| 20260903073018 | 59 | 178 | 0.9 | 2.6 | 0.00 | 0.01 | 0.01 | 97 | 1010.0 |
| 20260903072516 | 59 | 178 | 0.9 | 2.6 | 0.00 | 0.01 | 0.01 | 98 | 1010.0 |
| 20260903072015 | 59 | 178 | 0.0 | 1.7 | 0.00 | 0.01 | 0.01 | 98 | 1010.1 |
| 20260903071515 | 59 | 178 | 0.0 | 1.7 | 0.00 | 0.01 | 0.01 | 98 | 1010.1 |
| 20260903071014 | 59 | 178 | 0.0 | 1.7 | 0.00 | 0.01 | 0.01 | 98 | 1010.2 |
| 20260903070515 | 59 | 178 | 0.0 | 3.5 | 0.00 | 0.01 | 0.01 | 98 | 1010.2 |
| 20260903070013 | 58 | 179 | 0.9 | 3.5 | 0.00 | 0.01 | 0.01 | 98 | 1010.3 |
| 20260903065512 | 58 | 180 | 0.0 | 2.6 | 0.00 | 0.01 | 0.01 | 98 | 1010.3 |
| 20260903065012 | 58 | 180 | 0.0 | 2.6 | 0.00 | 0.01 | 0.01 | 98 | 1010.4 |
| 20260903064509 | 57 | 184 | 0.0 | 1.7 | 0.00 | 0.01 | 0.01 | 98 | 1010.5 |
| 20260903064007 | 57 | 305 | 0.0 | 0.0 | 0.00 | 0.01 | 0.01 | 98 | 1010.5 |
| 20260903063506 | 56 | 305 | 0.0 | 0.0 | 0.00 | 0.01 | 0.01 | 98 | 1010.6 |
| 20260903063005 | 56 | 305 | 0.0 | 0.0 | 0.00 | 0.01 | 0.01 | 98 | 1010.6 |
| 20260903062503 | 55 | 305 | 0.0 | 0.0 | 0.00 | 0.01 | 0.01 | 97 | 1010.7 |
| 20260903062001 | 55 | 305 | 0.0 | 0.0 | 0.00 | 0.01 | 0.01 | 98 | 1010.8 |
| 20260903061600 | 55 | 305 | 0.0 | 0.0 | 0.00 | 0.01 | 0.01 | 97 | 1010.8 |
| 20260903061103 | 54 | 305 | 0.0 | 0.0 | 0.00 | 0.01 | 0.01 | 97 | 1010.8 |
| 20260903060557 | 54 | 305 | 0.0 | 0.0 | 0.00 | 0.01 | 0.01 | 97 | 1010.9 |
| 20260903060056 | 54 | 305 | 0.0 | 0.0 | 0.00 | 0.01 | 0.01 | 97 | 1010.9 |
| 20260903055556 | 54 | 305 | 0.0 | 0.0 | 0.00 | 0.01 | 0.01 | 97 | 1011.0 |
| 20260903055054 | 54 | 305 | 0.0 | 0.0 | 0.00 | 0.01 | 0.01 | 97 | 1011.0 |
| 20260903054553 | 54 | 305 | 0.0 | 0.0 | 0.00 | 0.01 | 0.01 | 97 | 1011.1 |
| 20260903054054 | 53 | 305 | 0.0 | 0.0 | 0.00 | 0.01 | 0.01 | 97 | 1011.2 |
| 20260903053555 | 53 | 305 | 0.0 | 0.0 | 0.00 | 0.01 | 0.01 | 97 | 1011.2 |
| 20260903053055 | 53 | 305 | 0.0 | 0.0 | 0.00 | 0.01 | 0.01 | 97 | 1011.3 |
| 20260903052553 | 53 | 305 | 0.0 | 0.0 | 0.00 | 0.01 | 0.01 | 97 | 1011.4 |
| 20260903052052 | 53 | 305 | 0.0 | 0.0 | 0.00 | 0.01 | 0.01 | 97 | 1011.3 |
| 20260903051550 | 53 | 305 | 0.0 | 0.0 | 0.00 | 0.01 | 0.01 | 97 | 1011.4 |
| 20260903051050 | 53 | 305 | 0.0 | 0.0 | 0.00 | 0.01 | 0.01 | 97 | 1011.4 |
| 20260903050551 | 53 | 305 | 0.0 | 0.0 | 0.00 | 0.01 | 0.01 | 97 | 1011.4 |
| 20260903050046 | 52 | 305 | 0.0 | 0.0 | 0.00 | 0.01 | 0.01 | 97 | 1011.5 |
| 20260903045546 | 52 | 305 | 0.0 | 0.0 | 0.00 | 0.01 | 0.01 | 97 | 1011.5 |
| 20260903045047 | 52 | 305 | 0.0 | 0.0 | 0.00 | 0.01 | 0.01 | 97 | 1011.5 |
| 20260903044543 | 52 | 305 | 0.0 | 0.0 | 0.00 | 0.01 | 0.01 | 97 | 1011.6 |
| 20260903044047 | 52 | 305 | 0.0 | 0.0 | 0.00 | 0.01 | 0.01 | 97 | 1011.7 |
| 20260903043541 | 52 | 305 | 0.0 | 0.0 | 0.00 | 0.01 | 0.01 | 97 | 1011.8 |
| 20260903043053 | 52 | 305 | 0.0 | 0.0 | 0.00 | 0.01 | 0.01 | 97 | 1011.9 |
| 20260903042540 | 52 | 305 | 0.0 | 0.0 | 0.00 | 0.01 | 0.01 | 97 | 1012.0 |
| 20260903042039 | 52 | 305 | 0.0 | 0.0 | 0.00 | 0.01 | 0.01 | 97 | 1012.1 |
| 20260903041538 | 52 | 305 | 0.0 | 0.0 | 0.00 | 0.01 | 0.01 | 97 | 1012.1 |
| 20260903041037 | 52 | 305 | 0.0 | 0.0 | 0.00 | 0.01 | 0.01 | 97 | 1012.2 |
| 20260903040537 | 52 | 305 | 0.0 | 0.0 | 0.00 | 0.01 | 0.01 | 97 | 1012.3 |
| 20260903040037 | 52 | 305 | 0.0 | 0.0 | 0.00 | 0.01 | 0.01 | 97 | 1012.3 |
| 20260903035536 | 52 | 305 | 0.0 | 0.0 | 0.00 | 0.01 | 0.01 | 97 | 1012.4 |
| 20260903035035 | 52 | 305 | 0.0 | 0.0 | 0.00 | 0.01 | 0.01 | 97 | 1012.4 |
| 20260903034535 | 51 | 305 | 0.0 | 0.0 | 0.00 | 0.01 | 0.01 | 97 | 1012.5 |
| 20260903034035 | 51 | 305 | 0.0 | 0.0 | 0.00 | 0.01 | 0.01 | 97 | 1012.5 |
| 20260903033534 | 51 | 305 | 0.0 | 0.0 | 0.00 | 0.01 | 0.01 | 97 | 1012.5 |
| 20260903033033 | 51 | 305 | 0.0 | 0.0 | 0.00 | 0.01 | 0.01 | 97 | 1012.5 |
| 20260903032532 | 51 | 305 | 0.0 | 0.0 | 0.00 | 0.01 | 0.01 | 97 | 1012.6 |
| 20260903032035 | 51 | 305 | 0.0 | 0.0 | 0.00 | 0.01 | 0.01 | 97 | 1012.7 |
| 20260903031538 | 51 | 305 | 0.0 | 0.0 | 0.00 | 0.01 | 0.01 | 97 | 1012.6 |
| 20260903031029 | 51 | 305 | 0.0 | 0.0 | 0.00 | 0.01 | 0.01 | 97 | 1012.7 |
| 20260903030531 | 50 | 305 | 0.0 | 0.0 | 0.00 | 0.01 | 0.01 | 97 | 1012.7 |
| 20260903030030 | 50 | 305 | 0.0 | 0.0 | 0.00 | 0.01 | 0.01 | 96 | 1012.8 |
| 20260903025526 | 50 | 305 | 0.0 | 0.0 | 0.00 | 0.02 | 0.01 | 97 | 1012.8 |
| 20260903025025 | 50 | 305 | 0.0 | 0.0 | 0.00 | 0.02 | 0.01 | 97 | 1013.0 |
| 20260903024525 | 50 | 305 | 0.0 | 0.0 | 0.00 | 0.02 | 0.01 | 96 | 1013.0 |
| 20260903024024 | 49 | 305 | 0.0 | 0.0 | 0.00 | 0.02 | 0.01 | 96 | 1012.9 |
| 20260903023530 | 49 | 305 | 0.0 | 0.0 | 0.00 | 0.02 | 0.01 | 97 | 1013.0 |
| 20260903023022 | 49 | 305 | 0.0 | 0.0 | 0.00 | 0.02 | 0.01 | 96 | 1013.1 |
| 20260903022522 | 49 | 305 | 0.0 | 0.0 | 0.00 | 0.02 | 0.01 | 96 | 1013.1 |
| 20260903022021 | 48 | 305 | 0.0 | 0.0 | 0.00 | 0.02 | 0.01 | 96 | 1013.1 |
| 20260903021521 | 48 | 305 | 0.0 | 0.0 | 0.00 | 0.02 | 0.01 | 96 | 1013.1 |
| 20260903021020 | 48 | 305 | 0.0 | 0.0 | 0.00 | 0.02 | 0.01 | 96 | 1013.1 |
| 20260903020520 | 48 | 305 | 0.0 | 0.0 | 0.00 | 0.02 | 0.01 | 96 | 1013.1 |
| 20260903020034 | 48 | 305 | 0.0 | 0.0 | 0.00 | 0.02 | 0.01 | 96 | 1013.2 |
| 20260903015519 | 48 | 305 | 0.0 | 0.0 | 0.00 | 0.02 | 0.01 | 96 | 1013.3 |
| 20260903015017 | 47 | 305 | 0.0 | 0.0 | 0.00 | 0.02 | 0.01 | 96 | 1013.4 |
| 20260903014516 | 47 | 305 | 0.0 | 0.0 | 0.00 | 0.02 | 0.01 | 95 | 1013.5 |
| 20260903014017 | 47 | 305 | 0.0 | 0.0 | 0.01 | 0.02 | 0.01 | 95 | 1013.6 |
| 20260903013516 | 47 | 305 | 0.0 | 0.0 | 0.01 | 0.02 | 0.01 | 95 | 1013.6 |
| 20260903013018 | 47 | 305 | 0.0 | 0.0 | 0.01 | 0.02 | 0.01 | 96 | 1013.7 |
| 20260903012515 | 47 | 305 | 0.0 | 0.0 | 0.01 | 0.02 | 0.01 | 96 | 1013.7 |
| 20260903012014 | 47 | 305 | 0.0 | 0.0 | 0.01 | 0.02 | 0.01 | 96 | 1013.7 |
| 20260903011514 | 47 | 305 | 0.0 | 0.0 | 0.01 | 0.02 | 0.01 | 95 | 1013.7 |
| 20260903011015 | 47 | 305 | 0.0 | 0.0 | 0.01 | 0.02 | 0.01 | 95 | 1013.8 |
| 20260903010512 | 47 | 305 | 0.0 | 0.0 | 0.01 | 0.02 | 0.01 | 95 | 1013.8 |
| 20260903010013 | 47 | 305 | 0.0 | 0.0 | 0.01 | 0.02 | 0.01 | 95 | 1013.9 |
| 20260903005511 | 47 | 305 | 0.0 | 0.0 | 0.01 | 0.02 | 0.01 | 95 | 1013.8 |
| 20260903005012 | 47 | 305 | 0.0 | 0.0 | 0.01 | 0.02 | 0.01 | 95 | 1013.9 |
| 20260903004511 | 47 | 305 | 0.0 | 0.0 | 0.01 | 0.02 | 0.01 | 95 | 1013.9 |
| 20260903004011 | 47 | 305 | 0.0 | 0.0 | 0.00 | 0.01 | 0.00 | 95 | 1013.9 |
| 20260903003511 | 47 | 305 | 0.0 | 0.0 | 0.00 | 0.01 | 0.00 | 95 | 1013.9 |
| 20260903003010 | 47 | 305 | 0.0 | 0.0 | 0.00 | 0.01 | 0.00 | 95 | 1013.9 |
| 20260903002514 | 47 | 305 | 0.0 | 0.0 | 0.00 | 0.01 | 0.00 | 95 | 1014.0 |
| 20260903002012 | 47 | 305 | 0.0 | 0.0 | 0.00 | 0.01 | 0.00 | 95 | 1014.0 |
| 20260903001509 | 47 | 305 | 0.0 | 0.0 | 0.00 | 0.01 | 0.00 | 95 | 1013.9 |
| 20260903001009 | 48 | 305 | 0.0 | 0.0 | 0.00 | 0.01 | 0.00 | 95 | 1013.9 |
| 20260903000508 | 48 | 305 | 0.0 | 0.0 | 0.00 | 0.01 | 0.00 | 95 | 1013.9 |
| 20260903000007 | 48 | 305 | 0.0 | 0.0 | 0.00 | 0.01 | 0.00 | 95 | 1013.9 |
| 20260902235511 | 48 | 305 | 0.0 | 0.0 | 0.00 | 0.01 | 0.00 | 95 | 1014.0 |
| 20260902235007 | 48 | 305 | 0.0 | 0.0 | 0.00 | 0.01 | 0.00 | 95 | 1014.0 |
| 20260902234505 | 48 | 305 | 0.0 | 0.0 | 0.00 | 0.01 | 0.00 | 94 | 1014.0 |
| 20260902234006 | 48 | 305 | 0.0 | 0.0 | 0.00 | 0.01 | 0.00 | 94 | 1014.1 |
| 20260902233504 | 48 | 305 | 0.0 | 0.0 | 0.00 | 0.01 | 0.00 | 94 | 1014.1 |
| 20260902233009 | 48 | 305 | 0.0 | 0.0 | 0.00 | 0.01 | 0.00 | 94 | 1014.1 |
| 20260902232503 | 48 | 305 | 0.0 | 0.0 | 0.00 | 0.01 | 0.00 | 94 | 1014.2 |
| 20260902232003 | 49 | 305 | 0.0 | 0.0 | 0.00 | 0.01 | 0.00 | 94 | 1014.2 |
| 20260902231503 | 49 | 305 | 0.0 | 0.0 | 0.00 | 0.01 | 0.00 | 94 | 1014.2 |
| 20260902231003 | 49 | 305 | 0.0 | 0.0 | 0.00 | 0.01 | 0.00 | 94 | 1014.3 |
| 20260902230500 | 49 | 305 | 0.0 | 0.0 | 0.00 | 0.01 | 0.00 | 94 | 1014.3 |
| 20260902230001 | 49 | 305 | 0.0 | 0.0 | 0.00 | 0.01 | 0.00 | 94 | 1014.3 |
| 20260902225601 | 49 | 305 | 0.0 | 0.0 | 0.00 | 0.02 | 0.00 | 94 | 1014.3 |
| 20260902225101 | 49 | 305 | 0.0 | 0.0 | 0.00 | 0.02 | 0.00 | 94 | 1014.3 |
| 20260902224600 | 49 | 305 | 0.0 | 0.0 | 0.00 | 0.02 | 0.00 | 94 | 1014.3 |
| 20260902224059 | 49 | 305 | 0.0 | 0.0 | 0.00 | 0.02 | 0.00 | 94 | 1014.2 |
| 20260902223559 | 49 | 305 | 0.0 | 0.0 | 0.00 | 0.02 | 0.00 | 94 | 1014.2 |
| 20260902223117 | 49 | 305 | 0.0 | 0.0 | 0.00 | 0.02 | 0.00 | 94 | 1014.2 |
| 20260902222559 | 49 | 305 | 0.0 | 0.0 | 0.00 | 0.02 | 0.00 | 94 | 1014.2 |
| 20260902222059 | 49 | 305 | 0.0 | 0.0 | 0.00 | 0.02 | 0.00 | 94 | 1014.2 |
| 20260902221557 | 49 | 305 | 0.0 | 0.0 | 0.00 | 0.02 | 0.00 | 94 | 1014.2 |
| 20260902221059 | 49 | 305 | 0.0 | 0.0 | 0.00 | 0.02 | 0.00 | 93 | 1014.2 |
| 20260902220556 | 49 | 305 | 0.0 | 0.0 | 0.00 | 0.02 | 0.00 | 93 | 1014.3 |
| 20260902220101 | 49 | 305 | 0.0 | 0.0 | 0.00 | 0.02 | 0.00 | 93 | 1014.2 |
| 20260902215555 | 49 | 305 | 0.0 | 0.0 | 0.00 | 0.02 | 0.02 | 93 | 1014.3 |
| 20260902215057 | 49 | 305 | 0.0 | 0.0 | 0.00 | 0.02 | 0.02 | 93 | 1014.1 |
| 20260902214556 | 49 | 305 | 0.0 | 0.0 | 0.00 | 0.02 | 0.02 | 93 | 1014.2 |
| 20260902214055 | 49 | 305 | 0.0 | 0.0 | 0.00 | 0.02 | 0.02 | 93 | 1014.2 |
| 20260902213554 | 49 | 305 | 0.0 | 0.9 | 0.00 | 0.02 | 0.02 | 93 | 1014.2 |
| 20260902213054 | 49 | 305 | 0.0 | 0.9 | 0.00 | 0.02 | 0.02 | 92 | 1014.2 |
| 20260902212553 | 49 | 305 | 0.0 | 0.9 | 0.00 | 0.02 | 0.02 | 92 | 1014.2 |
| 20260902212052 | 50 | 305 | 0.0 | 0.9 | 0.00 | 0.02 | 0.02 | 92 | 1014.2 |
| 20260902211555 | 50 | 305 | 0.0 | 0.9 | 0.00 | 0.02 | 0.02 | 92 | 1014.2 |
| 20260902211051 | 50 | 305 | 0.0 | 0.9 | 0.00 | 0.02 | 0.02 | 92 | 1014.1 |
| 20260902210550 | 50 | 305 | 0.0 | 0.0 | 0.00 | 0.02 | 0.02 | 91 | 1014.1 |
| 20260902210050 | 50 | 305 | 0.0 | 0.0 | 0.00 | 0.02 | 0.02 | 91 | 1014.1 |
| 20260902205549 | 50 | 305 | 0.0 | 0.0 | 0.00 | 0.02 | 0.02 | 91 | 1014.1 |
| 20260902205048 | 51 | 305 | 0.0 | 0.9 | 0.00 | 0.02 | 0.02 | 91 | 1014.1 |
| 20260902204621 | 51 | 305 | 0.0 | 0.9 | 0.00 | 0.02 | 0.02 | 90 | 1014.0 |
| 20260902204047 | 51 | 305 | 0.0 | 0.9 | 0.00 | 0.02 | 0.02 | 90 | 1014.0 |
| 20260902203546 | 51 | 305 | 0.0 | 0.0 | 0.00 | 0.02 | 0.02 | 90 | 1014.1 |
| 20260902203050 | 51 | 305 | 0.0 | 0.9 | 0.00 | 0.02 | 0.02 | 90 | 1014.1 |
| 20260902202547 | 52 | 305 | 0.0 | 0.9 | 0.00 | 0.02 | 0.02 | 89 | 1014.1 |
| 20260902202044 | 52 | 305 | 0.0 | 0.9 | 0.00 | 0.02 | 0.02 | 89 | 1014.1 |
| 20260902201544 | 53 | 305 | 0.0 | 0.0 | 0.00 | 0.02 | 0.02 | 89 | 1014.1 |
| 20260902201047 | 53 | 305 | 0.0 | 0.9 | 0.00 | 0.02 | 0.02 | 89 | 1014.0 |
| 20260902200543 | 53 | 305 | 0.0 | 0.9 | 0.00 | 0.02 | 0.02 | 88 | 1014.0 |
| 20260902200044 | 53 | 305 | 0.0 | 0.9 | 0.00 | 0.02 | 0.02 | 88 | 1014.0 |
| 20260902195543 | 54 | 305 | 0.0 | 0.0 | 0.00 | 0.02 | 0.02 | 87 | 1014.0 |
| 20260902195044 | 54 | 305 | 0.0 | 0.0 | 0.00 | 0.02 | 0.02 | 87 | 1014.1 |
| 20260902194543 | 54 | 305 | 0.0 | 0.0 | 0.00 | 0.02 | 0.02 | 86 | 1014.1 |
| 20260902194043 | 55 | 305 | 0.0 | 0.0 | 0.00 | 0.02 | 0.02 | 86 | 1014.1 |
| 20260902193546 | 55 | 305 | 0.0 | 0.0 | 0.00 | 0.02 | 0.02 | 86 | 1014.2 |
| 20260902193042 | 55 | 305 | 0.0 | 0.9 | 0.00 | 0.02 | 0.02 | 86 | 1014.2 |
| 20260902192542 | 55 | 305 | 0.0 | 0.9 | 0.00 | 0.02 | 0.02 | 85 | 1014.1 |
| 20260902192041 | 56 | 305 | 0.0 | 1.7 | 0.00 | 0.02 | 0.02 | 84 | 1014.1 |
| 20260902191542 | 56 | 305 | 0.0 | 1.7 | 0.00 | 0.02 | 0.02 | 84 | 1014.1 |
| 20260902191041 | 56 | 305 | 0.0 | 0.0 | 0.00 | 0.02 | 0.02 | 84 | 1014.1 |
| 20260902190541 | 57 | 305 | 0.0 | 0.0 | 0.00 | 0.02 | 0.02 | 84 | 1014.0 |
| 20260902190041 | 57 | 305 | 0.0 | 0.0 | 0.00 | 0.02 | 0.02 | 83 | 1014.0 |
| 20260902185543 | 57 | 305 | 0.0 | 0.0 | 0.00 | 0.02 | 0.02 | 82 | 1014.0 |
| 20260902185044 | 58 | 305 | 0.0 | 0.0 | 0.00 | 0.02 | 0.02 | 82 | 1013.9 |
| 20260902184541 | 58 | 305 | 0.0 | 1.7 | 0.00 | 0.02 | 0.02 | 81 | 1013.9 |
| 20260902184041 | 59 | 305 | 0.0 | 1.7 | 0.00 | 0.02 | 0.02 | 81 | 1013.9 |
| 20260902183541 | 59 | 257 | 0.0 | 0.9 | 0.00 | 0.02 | 0.02 | 81 | 1013.9 |
| 20260902183054 | 59 | 257 | 0.0 | 0.9 | 0.00 | 0.02 | 0.02 | 81 | 1013.8 |
| 20260902182540 | 60 | 257 | 0.0 | 2.6 | 0.00 | 0.02 | 0.02 | 81 | 1013.7 |
| 20260902182043 | 60 | 259 | 0.0 | 2.6 | 0.00 | 0.02 | 0.02 | 80 | 1013.7 |
| 20260902181541 | 61 | 286 | 0.0 | 0.9 | 0.00 | 0.02 | 0.02 | 79 | 1013.7 |
| 20260902181038 | 62 | 286 | 0.0 | 2.6 | 0.00 | 0.02 | 0.02 | 78 | 1013.6 |
| 20260902180539 | 63 | 286 | 0.0 | 2.6 | 0.00 | 0.02 | 0.02 | 77 | 1013.6 |
| 20260902180045 | 64 | 331 | 0.0 | 0.9 | 0.00 | 0.02 | 0.02 | 77 | 1013.6 |
| 20260902175539 | 64 | 331 | 0.0 | 0.9 | 0.00 | 0.02 | 0.02 | 76 | 1013.5 |
| 20260902175044 | 65 | 331 | 0.0 | 0.9 | 0.00 | 0.02 | 0.02 | 75 | 1013.4 |
| 20260902174538 | 65 | 331 | 0.0 | 0.9 | 0.00 | 0.02 | 0.02 | 75 | 1013.3 |
| 20260902174040 | 65 | 331 | 0.0 | 1.7 | 0.00 | 0.02 | 0.02 | 76 | 1013.2 |
| 20260902173539 | 65 | 18 | 0.9 | 2.6 | 0.00 | 0.02 | 0.02 | 76 | 1013.2 |
| 20260902173053 | 64 | 245 | 0.0 | 2.6 | 0.00 | 0.02 | 0.02 | 78 | 1013.3 |
| 20260902172538 | 64 | 306 | 0.0 | 2.6 | 0.00 | 0.02 | 0.02 | 78 | 1013.3 |
| 20260902172041 | 64 | 282 | 0.0 | 3.5 | 0.00 | 0.02 | 0.02 | 77 | 1013.4 |
| 20260902171538 | 64 | 267 | 0.9 | 6.1 | 0.00 | 0.02 | 0.02 | 76 | 1013.4 |
| 20260902171039 | 65 | 205 | 0.9 | 2.6 | 0.00 | 0.02 | 0.02 | 77 | 1013.4 |
| 20260902170537 | 65 | 298 | 0.0 | 4.3 | 0.00 | 0.02 | 0.02 | 76 | 1013.3 |
| 20260902170041 | 65 | 245 | 0.9 | 4.3 | 0.00 | 0.02 | 0.02 | 75 | 1013.3 |
| 20260902165536 | 66 | 239 | 0.9 | 3.5 | 0.00 | 0.02 | 0.02 | 75 | 1013.2 |
| 20260902165037 | 66 | 55 | 0.9 | 6.1 | 0.00 | 0.02 | 0.02 | 75 | 1013.3 |
| 20260902164541 | 65 | 33 | 1.7 | 6.1 | 0.00 | 0.02 | 0.02 | 75 | 1013.2 |
| 20260902164036 | 65 | 202 | 0.9 | 5.2 | 0.00 | 0.02 | 0.02 | 76 | 1013.2 |
| 20260902163536 | 65 | 284 | 0.9 | 6.1 | 0.00 | 0.02 | 0.02 | 77 | 1013.1 |
| 20260902163042 | 65 | 290 | 0.9 | 5.2 | 0.00 | 0.02 | 0.02 | 79 | 1013.1 |
| 20260902162536 | 65 | 274 | 0.9 | 5.2 | 0.00 | 0.02 | 0.02 | 80 | 1013.2 |
| 20260902162036 | 65 | 262 | 1.7 | 7.0 | 0.00 | 0.02 | 0.02 | 79 | 1013.2 |
| 20260902161535 | 65 | 276 | 1.7 | 7.0 | 0.00 | 0.02 | 0.02 | 80 | 1013.1 |
| 20260902161035 | 65 | 5 | 1.7 | 7.0 | 0.00 | 0.02 | 0.02 | 80 | 1013.2 |
| 20260902160535 | 65 | 211 | 1.7 | 8.7 | 0.00 | 0.02 | 0.02 | 81 | 1013.2 |